Jackson Hawkins Field, MS

3:21 PM CDT on May 23, 2017 (GMT -0500)
Hawkins

Weather History for KHKS - December, 2013

Change the Weather History Date:

Wednesday, December 18, 2013

  Actual Average (KJAN) Record (KJAN)
Temperature  
Mean Temperature 50 °F -  
Max Temperature 66 °F 59 °F 82 °F (1908)
Min Temperature 35 °F 32 °F 13 °F (1901)
Degree Days  
Heating Degree Days 14    
Moisture  
Dew Point 35 °F    
Average Humidity 65    
Maximum Humidity 93    
Minimum Humidity 30    
Precipitation  
Precipitation 0.00 in - - ()
Sea Level Pressure  
Sea Level Pressure 30.28 in    
Wind  
Wind Speed 3 mph (SE)    
Max Wind Speed 9 mph    
Max Gust Speed -    
Visibility 8 miles    
Events      
Averages and records for this station are not official NWS values.
T = Trace of Precipitation, MM = Missing Value Source: NWS Daily Summary

Daily Weather History Graph

Daily Weather History Graph

Search for Another Location

Airport or City:

Trip Planner

Search our weather history database for the weather conditions in past years. The results will help you decide how hot, cold, wet, or windy it might be!

Date:

Astronomy

Dec. 18, 2013 Rise Set
Actual Time 6:56 AM CST 4:58 PM CST
Civil Twilight 6:29 AM CST 5:25 PM CST
Nautical Twilight 5:58 AM CST 5:56 PM CST
Astronomical Twilight 5:28 AM CST 6:26 PM CST
Moon 6:25 PM CST (12/18) 7:40 AM CST (12/18)
Length of Visible Light 10h 56m
Length of Day
10h 01m
Full, 98% of the Moon is Illuminated
Dec 18
Full
Dec 25
Last Quarter
Jan 1
New
Jan 7
First Quarter
Jan 15
Full

Hourly Weather History & Observations

Time (CST) Temp. Windchill Dew Point Humidity Pressure Visibility Wind Dir Wind Speed Gust Speed Precip Events Conditions
12:53 AM 37.9 °F - 36.0 °F 93% 30.28 in 7.0 mi Calm Calm - N/A   Clear
1:53 AM 39.0 °F - 36.0 °F 89% 30.28 in 7.0 mi Calm Calm - N/A   Clear
2:53 AM 37.0 °F - 35.1 °F 93% 30.29 in 7.0 mi Calm Calm - N/A   Clear
3:53 AM 37.0 °F - 34.0 °F 89% 30.30 in 4.0 mi Calm Calm - N/A   Clear
4:53 AM 37.0 °F - 34.0 °F 89% 30.30 in 7.0 mi Calm Calm - N/A   Clear
5:53 AM 35.1 °F - 33.1 °F 92% 30.31 in 5.0 mi Calm Calm - N/A   Clear
6:40 AM 35.6 °F - 33.8 °F 93% 30.34 in 2.5 mi Calm Calm - N/A   Clear
6:49 AM 35.6 °F - 33.8 °F 93% 30.34 in 7.0 mi Calm Calm - N/A   Clear
6:53 AM 36.0 °F - 34.0 °F 93% 30.33 in 6.0 mi Calm Calm - N/A   Clear
7:53 AM 37.0 °F - 35.1 °F 93% 30.34 in 4.0 mi Calm Calm - N/A   Clear
8:53 AM 48.0 °F - 39.0 °F 71% 30.36 in 10.0 mi SSE 5.8 mph - N/A   Clear
9:53 AM 54.0 °F - 35.1 °F 49% 30.36 in 10.0 mi ESE 8.1 mph - N/A   Clear
10:53 AM 59.0 °F - 35.1 °F 41% 30.35 in 10.0 mi SE 6.9 mph - N/A   Clear
11:53 AM 61.0 °F - 35.1 °F 38% 30.31 in 10.0 mi SE 8.1 mph - N/A   Clear
12:53 PM 64.0 °F - 35.1 °F 34% 30.28 in 10.0 mi ESE 5.8 mph - N/A   Clear
1:53 PM 64.9 °F - 34.0 °F 32% 30.25 in 10.0 mi Variable 5.8 mph - N/A   Clear
2:53 PM 66.9 °F - 34.0 °F 30% 30.24 in 10.0 mi South 9.2 mph - N/A   Clear
3:53 PM 66.0 °F - 34.0 °F 30% 30.23 in 10.0 mi SSE 8.1 mph - N/A   Clear
4:53 PM 60.1 °F - 34.0 °F 38% 30.22 in 10.0 mi SSE 8.1 mph - N/A   Clear
5:53 PM 57.0 °F - 34.0 °F 42% 30.22 in 10.0 mi SSE 5.8 mph - N/A   Clear
6:53 PM 54.0 °F - 36.0 °F 51% 30.22 in 10.0 mi SE 5.8 mph - N/A   Clear
7:53 PM 53.1 °F - 36.0 °F 52% 30.22 in 10.0 mi SE 4.6 mph - N/A   Clear
8:53 PM 51.1 °F - 36.0 °F 56% 30.21 in 10.0 mi SE 5.8 mph - N/A   Clear
9:53 PM 48.9 °F - 36.0 °F 61% 30.21 in 10.0 mi SSE 5.8 mph - N/A   Clear
10:53 PM 46.0 °F 42.5 °F 37.0 °F 71% 30.22 in 10.0 mi South 6.9 mph - N/A   Clear
11:53 PM 45.0 °F 41.8 °F 36.0 °F 71% 30.19 in 10.0 mi SSE 5.8 mph - N/A   Clear